Probability
0 0 0 0 0 0 0 0 0 0 0 0 0 0 0 0 0 0 0 0 0 0 0 0 0 0 0 0 0 3 3 0 0 0 0 0 0 0 0 0 3 0 3
0 0 0 0 0 0 0 0 0 0 0 0 0 0 0 0 0 0 0 0 0 0 0 0 0 0 0 3 3 3 0 0 0 0 0 0 0 0 0 0 0 0 0
0 0 0 0 0 0 0 0 0 0 0 0 0 0 0 0 0 0 0 0 0 0 0 0 0 3 0 3 3 3 0 0 0 0 0 0 0 0 0 0 0 0 0
0 0 0 0 0 0 0 0 0 0 0 0 0 0 0 0 0 0 0 0 0 0 0 0 0 0 0 3 3 3 0 0 0 0 0 0 0 0 0 0 0 0 0
0 0 0 0 0 0 0 0 0 0 0 0 0 0 0 0 0 0 0 0 0 0 0 0 0 0 0 0 0 3 0 0 0 0 0 0 0 0 0 3 3 0 0
0 0 0 0 0 0 0 0 0 0 0 0 0 0 0 0 0 0 0 0 0 0 0 0 0 0 0 0 0 3 3 0 0 0 0 0 0 0 0 3 3 0 0
0 0 0 0 0 0 0 0 0 0 0 0 0 0 0 0 0 0 0 0 0 0 0 0 0 0 0 0 0 0 0 0 0 0 0 0 0 0 0 3 3 3 0
0 0 0 0 0 0 0 0 0 0 0 0 0 0 0 0 0 0 0 0 0 0 0 0 0 0 0 0 0 0 0 0 0 0 0 0 0 3 3 3 3 0 0
0 0 0 0 0 0 0 0 0 0 0 0 0 0 0 0 0 0 0 0 0 0 0 0 0 0 0 0 0 0 0 0 0 0 0 0 0 0 0 0 0 0 0
0 0 0 0 0 0 0 0 0 0 0 0 0 0 0 0 0 0 0 0 0 0 0 0 0 0 0 0 0 0 0 0 0 0 0 0 0 0 0 0 0 0 0
0 0 0 0 0 0 0 0 0 0 0 0 0 0 0 0 0 0 0 0 0 0 0 0 0 0 0 0 0 0 0 0 0 0 0 0 0 0 0 0 0 0 0
0 0 0 0 0 0 0 0 0 0 0 0 0 0 0 0 0 0 0 0 0 0 0 0 0 0 0 0 0 0 0 0 0 0 0 0 0 0 0 0 0 0 0
0 0 0 0 0 0 0 0 0 0 0 0 0 0 0 0 0 0 0 0 0 0 0 0 0 0 0 0 0 0 0 0 0 0 0 0 0 0 0 0 0 0 0
0 0 0 0 0 0 0 0 0 0 0 0 0 0 0 0 0 0 0 0 0 0 0 0 0 0 0 0 0 0 0 0 0 0 0 0 0 0 0 0 0 0 0
0 0 0 0 0 0 0 0 0 0 0 0 0 0 0 0 0 0 0 0 0 0 0 0 0 0 0 0 0 0 0 0 0 0 0 0 0 0 0 0 0 0 0
0 0 0 0 0 0 0 0 0 0 0 0 0 0 0 0 0 0 0 0 0 0 0 0 0 0 0 0 0 0 0 0 0 0 0 0 0 0 0 0 0 0 0
0 0 0 0 0 0 0 0 0 0 0 0 0 0 0 0 0 0 0 0 0 0 0 0 0 0 0 0 0 0 0 0 0 0 0 0 0 0 0 0 0 0 0
0 0 0 0 0 0 0 0 0 0 0 0 0 0 0 0 0 0 0 0 0 0 0 0 0 0 0 0 0 0 0 0 0 0 0 0 0 0 0 0 0 0 0
0 0 0 0 0 0 0 0 0 0 0 0 0 0 0 0 0 0 0 0 0 0 0 0 0 0 0 0 0 0 0 0 0 0 0 0 0 0 0 0 0 0 0
0 0 0 0 0 0 0 0 0 0 0 0 0 0 0 0 0 0 0 0 0 0 0 0 0 0 0 0 0 0 0 0 0 0 0 0 0 0 0 0 0 0 0
0 0 0 0 0 0 0 0 0 0 0 0 0 0 0 0 0 0 0 0 0 0 0 0 0 0 0 0 0 0 0 0 0 0 0 0 0 0 0 0 0 0 0
0 0 0 0 0 0 0 0 0 0 0 0 0 0 0 0 0 0 0 0 0 0 0 0 0 0 0 0 0 0 0 0 0 0 0 0 0 0 0 0 0 0 0
0 0 0 0 0 0 0 0 0 0 0 0 0 0 0 0 0 0 0 0 0 0 0 0 0 0 0 0 0 0 0 0 0 0 0 0 0 0 0 0 0 0 0
0 0 0 0 0 0 0 0 0 0 0 0 0 0 0 0 0 0 0 0 0 0 0 0 0 0 0 0 0 0 0 0 0 0 0 0 0 0 0 0 0 0 0
0 0 0 0 0 0 0 0 0 0 0 0 0 0 0 0 0 0 0 0 0 0 0 0 0 0 0 0 0 0 0 0 0 0 0 0 0 0 0 0 0 0 0
0 0 0 0 0 0 0 0 0 0 0 0 0 0 0 0 0 0 0 0 0 0 0 0 0 0 0 0 0 0 0 0 0 0 0 0 0 0 0 0 0 0 0
Height
5784 5784 5785 5786 5786 5787 5788 5789 5790 5791 5792 5794 5794 5795 5796 5797 5798 5799 5800 5801 5801 5802 5803 5803 5804 5804 5805 5806 5807 5807 5808 5808 5809 5809 5810 5811 5812 5812 5813 5813 5814 5815 5815
5776 5776 5777 5778 5778 5779 5780 5781 5782 5783 5784 5785 5786 5787 5789 5790 5791 5792 5792 5793 5794 5795 5796 5796 5797 5797 5798 5799 5800 5800 5801 5802 5802 5803 5804 5805 5806 5806 5807 5808 5809 5809 5810
5767 5768 5769 5769 5770 5770 5771 5772 5773 5774 5775 5776 5778 5779 5780 5781 5782 5783 5784 5785 5786 5787 5788 5789 5789 5790 5791 5792 5792 5793 5793 5794 5795 5796 5797 5798 5799 5800 5801 5802 5803 5804 5804
5758 5759 5759 5760 5761 5761 5762 5762 5763 5764 5766 5767 5768 5769 5771 5772 5773 5775 5776 5777 5778 5779 5780 5780 5781 5782 5783 5783 5784 5784 5785 5786 5787 5788 5789 5790 5792 5794 5795 5796 5797 5798 5798
5748 5748 5749 5750 5751 5751 5752 5752 5753 5755 5756 5757 5758 5760 5761 5762 5764 5765 5766 5767 5768 5770 5771 5771 5772 5773 5774 5774 5775 5776 5777 5777 5778 5779 5781 5782 5784 5786 5788 5789 5790 5791 5792
5738 5738 5739 5739 5740 5741 5741 5742 5743 5744 5745 5747 5748 5749 5751 5752 5753 5754 5756 5757 5758 5759 5761 5762 5763 5764 5764 5765 5766 5766 5767 5768 5769 5770 5772 5774 5776 5778 5780 5781 5783 5784 5785
5727 5727 5728 5728 5729 5730 5730 5731 5732 5733 5734 5735 5737 5739 5740 5741 5742 5744 5745 5746 5747 5749 5750 5751 5752 5753 5754 5755 5756 5757 5758 5759 5760 5762 5763 5765 5767 5769 5771 5773 5775 5776 5778
5715 5716 5716 5717 5717 5718 5719 5719 5720 5721 5722 5723 5725 5726 5728 5730 5731 5732 5733 5734 5735 5737 5738 5740 5741 5742 5744 5745 5746 5747 5748 5749 5751 5752 5754 5756 5758 5760 5762 5764 5766 5767 5769
5702 5703 5704 5704 5705 5705 5706 5707 5707 5708 5710 5711 5712 5713 5715 5717 5718 5720 5720 5721 5723 5724 5726 5727 5729 5730 5732 5733 5735 5736 5737 5739 5740 5742 5744 5746 5748 5750 5752 5754 5756 5758 5760
5690 5690 5690 5691 5691 5692 5693 5693 5694 5695 5696 5697 5698 5699 5701 5702 5704 5706 5707 5708 5709 5710 5712 5714 5715 5717 5719 5721 5722 5724 5726 5728 5729 5731 5732 5734 5737 5739 5741 5744 5745 5747 5749
5676 5676 5676 5677 5677 5678 5678 5679 5680 5680 5682 5683 5683 5684 5685 5686 5688 5690 5692 5694 5694 5695 5697 5699 5701 5703 5705 5707 5709 5711 5713 5715 5717 5719 5721 5723 5725 5728 5730 5732 5734 5736 5739
5662 5662 5662 5662 5663 5663 5664 5664 5664 5665 5666 5667 5667 5668 5669 5671 5672 5673 5675 5677 5679 5680 5682 5684 5686 5688 5690 5693 5695 5697 5699 5702 5704 5706 5709 5711 5713 5716 5718 5720 5722 5724 5727
5647 5647 5647 5648 5648 5648 5648 5648 5649 5649 5650 5650 5651 5652 5652 5654 5655 5656 5658 5660 5662 5664 5666 5668 5670 5672 5674 5677 5680 5682 5685 5687 5690 5692 5695 5697 5700 5702 5705 5707 5710 5712 5715
5632 5631 5632 5632 5632 5632 5632 5632 5632 5632 5633 5633 5633 5634 5635 5636 5637 5638 5640 5642 5645 5647 5649 5651 5653 5655 5657 5660 5663 5666 5669 5672 5674 5677 5680 5683 5685 5688 5691 5693 5696 5699 5702
5615 5615 5615 5615 5615 5615 5615 5615 5615 5615 5615 5615 5616 5616 5617 5618 5619 5621 5622 5625 5627 5630 5633 5634 5636 5638 5640 5643 5646 5649 5652 5655 5658 5661 5664 5667 5670 5673 5676 5679 5682 5685 5688
5598 5599 5599 5599 5598 5598 5598 5598 5598 5598 5598 5598 5598 5599 5600 5601 5602 5604 5605 5607 5609 5612 5616 5618 5620 5621 5623 5626 5628 5631 5634 5638 5641 5644 5647 5651 5654 5657 5660 5663 5666 5669 5672
5582 5582 5582 5581 5581 5581 5581 5581 5581 5581 5582 5582 5582 5582 5583 5584 5586 5587 5588 5590 5592 5594 5598 5601 5602 5604 5606 5609 5611 5614 5617 5621 5624 5627 5630 5634 5637 5640 5644 5647 5650 5653 5656
5564 5564 5564 5564 5564 5565 5565 5565 5565 5565 5565 5566 5566 5566 5567 5568 5569 5570 5572 5573 5575 5577 5579 5583 5585 5587 5589 5592 5594 5597 5600 5604 5607 5610 5613 5616 5619 5623 5626 5629 5633 5636 5640
5547 5547 5547 5548 5548 5548 5548 5548 5548 5548 5548 5549 5549 5549 5550 5551 5552 5554 5555 5557 5558 5559 5561 5564 5567 5569 5572 5574 5577 5580 5583 5586 5589 5592 5595 5598 5602 5605 5608 5612 5615 5619 5623
5530 5530 5531 5531 5531 5531 5531 5531 5531 5531 5531 5532 5532 5533 5533 5534 5536 5537 5538 5540 5541 5543 5544 5546 5549 5552 5555 5557 5559 5563 5566 5568 5572 5574 5577 5580 5584 5586 5590 5594 5598 5601 5604
5514 5514 5514 5514 5514 5514 5514 5514 5514 5514 5515 5515 5516 5516 5517 5518 5519 5520 5522 5523 5524 5526 5527 5529 5531 5534 5537 5539 5542 5544 5547 5550 5553 5556 5559 5563 5566 5570 5572 5575 5578 5582 5586
5498 5498 5497 5497 5497 5497 5497 5497 5498 5498 5499 5499 5499 5500 5501 5502 5502 5504 5505 5506 5508 5509 5511 5512 5514 5516 5518 5520 5523 5525 5528 5532 5537 5540 5541 5544 5547 5550 5553 5557 5560 5563 5566
5484 5483 5482 5481 5481 5481 5481 5481 5481 5482 5482 5483 5483 5483 5484 5485 5486 5487 5489 5490 5491 5492 5494 5496 5497 5499 5500 5503 5505 5508 5509 5511 5516 5518 5520 5525 5528 5531 5534 5537 5540 5544 5547
5469 5468 5467 5466 5465 5465 5465 5465 5465 5466 5466 5467 5467 5468 5468 5469 5470 5471 5473 5474 5475 5476 5478 5479 5481 5482 5482 5483 5485 5487 5489 5492 5496 5498 5500 5505 5508 5512 5515 5518 5522 5525 5528
5454 5453 5452 5451 5450 5450 5450 5449 5449 5450 5450 5451 5452 5452 5453 5453 5455 5455 5457 5459 5460 5460 5460 5462 5463 5464 5464 5466 5467 5468 5470 5473 5477 5479 5481 5485 5489 5492 5496 5499 5502 5506 5509
5440 5438 5437 5435 5435 5434 5434 5433 5433 5434 5435 5436 5436 5437 5437 5437 5438 5438 5440 5442 5443 5444 5444 5445 5446 5447 5447 5448 5449 5450 5451 5453 5456 5460 5461 5464 5468 5471 5476 5480 5483 5486 5489
Wind_Speed
32 32 33 33 33 33 33 34 34 34 34 34 34 33 33 33 33 32 32 32 31 30 30 29 29 29 29 29 28 28 27 27 27 27 27 27 26 25 24 23 23 22 22
34 34 34 35 35 36 36 37 37 37 37 37 36 36 35 34 34 33 34 34 34 33 32 32 32 32 31 31 31 30 30 29 29 29 28 28 27 27 26 25 24 24 23
37 36 37 37 38 38 39 39 39 39 39 39 39 38 38 37 36 35 35 35 35 35 34 34 34 34 34 33 33 33 32 32 32 31 31 30 30 29 28 27 26 25 25
38 38 38 39 39 40 40 40 41 41 41 41 41 40 40 39 39 39 38 37 37 37 36 36 36 36 36 36 35 35 35 34 34 33 33 32 32 31 30 29 28 27 27
40 40 40 40 41 41 41 41 41 42 42 42 43 43 42 42 42 41 41 40 40 39 39 39 38 38 38 38 38 37 37 37 37 36 35 35 34 33 32 31 30 30 29
43 43 42 42 43 43 44 43 43 43 43 44 44 45 45 45 44 44 43 43 42 41 41 41 41 40 40 40 40 39 38 38 38 38 38 37 36 35 35 34 33 32 31
45 45 45 44 45 45 45 46 46 46 46 46 46 46 47 47 47 46 46 46 45 45 44 43 43 43 43 42 42 41 40 40 39 40 40 39 38 37 37 37 36 35 34
46 47 47 48 48 48 48 48 48 48 48 48 49 49 49 49 49 49 49 49 49 48 46 46 46 45 45 45 44 43 43 42 41 41 41 41 40 40 39 39 39 37 37
48 48 49 50 50 50 50 50 50 51 51 51 52 52 52 52 52 52 52 52 52 51 50 49 48 48 47 47 46 46 45 44 43 43 43 43 43 42 41 40 40 40 39
51 51 52 52 52 52 53 53 53 53 53 53 53 54 55 55 54 54 54 53 53 53 53 52 51 51 50 50 49 49 48 47 46 45 44 45 45 44 43 43 42 42 42
52 53 53 53 53 54 54 55 55 55 56 56 55 55 56 56 55 55 55 54 54 55 55 55 54 53 53 52 51 51 50 49 48 48 47 46 46 46 45 45 45 44 44
54 54 54 54 55 55 56 56 56 57 57 58 58 57 57 57 57 57 57 57 57 56 56 56 56 56 56 55 55 54 53 52 51 50 50 49 48 48 48 47 47 47 46
55 55 56 56 57 57 57 58 58 58 58 59 59 60 60 60 60 60 59 59 59 59 58 58 58 58 57 57 57 57 56 56 55 53 52 52 51 51 51 50 49 48 48
57 57 57 58 58 58 59 59 60 60 60 60 61 62 62 62 62 62 61 60 59 59 59 59 60 60 60 60 59 59 59 58 58 57 56 54 54 53 53 52 51 50 50
58 58 59 59 59 59 60 61 60 61 61 61 61 61 61 61 61 61 61 61 60 59 58 58 58 60 61 61 61 61 61 60 60 59 59 57 57 55 55 55 55 54 54
58 58 58 59 59 59 59 60 60 59 59 59 59 59 59 58 59 59 60 60 60 60 59 58 58 58 59 60 60 60 61 61 61 61 60 60 59 58 57 57 57 57 57
58 59 59 59 58 58 57 58 58 58 58 58 59 59 59 58 58 59 59 59 59 60 60 59 60 60 60 60 60 61 60 60 61 61 61 61 61 60 60 59 58 58 58
57 58 58 58 57 57 57 57 57 57 57 58 58 59 59 59 59 59 59 59 59 60 61 61 60 60 60 61 60 60 61 61 61 61 61 62 62 62 62 61 61 60 60
57 57 57 57 57 57 57 57 56 57 57 57 58 59 59 59 59 59 59 59 59 59 60 61 60 61 61 60 61 61 61 62 62 61 61 62 62 63 63 63 62 62 62
56 56 57 57 57 56 56 57 56 56 56 57 58 58 59 59 59 59 59 59 59 60 60 60 60 60 61 62 62 62 62 62 63 63 63 63 63 63 63 64 64 64 64
55 55 56 56 56 55 55 56 56 55 55 56 57 58 58 58 59 59 59 59 59 59 60 60 60 60 61 62 63 63 63 64 64 64 64 65 64 64 64 64 65 66 66
51 52 52 53 53 53 54 54 55 54 54 54 56 57 58 58 58 58 58 58 59 59 59 59 59 59 60 62 63 64 64 65 66 66 66 66 66 65 65 65 65 65 66
49 50 50 50 51 51 51 52 52 52 52 52 52 54 55 56 56 56 57 58 58 58 59 59 59 60 61 62 63 64 64 64 65 66 66 66 66 66 66 66 65 66 66
47 48 49 49 49 50 51 51 52 52 51 51 52 52 52 53 54 55 55 56 56 57 58 58 58 59 60 61 62 63 64 64 64 65 66 65 65 66 66 66 66 66 66
46 47 48 48 49 50 51 51 52 52 52 51 51 51 52 53 54 54 55 55 56 56 57 57 58 58 58 59 60 61 62 63 63 64 66 65 65 66 66 66 66 66 66
46 47 48 48 48 49 50 50 50 51 51 51 52 52 52 53 53 54 55 55 55 55 56 56 57 58 58 59 59 60 61 61 62 63 65 66 65 66 66 66 66 66 66
Wind_Direction
261 261 258 257 257 256 256 257 256 256 257 258 259 259 259 258 258 259 259 259 259 260 260 261 261 261 260 260 259 260 261 261 262 261 261 261 260 260 261 261 260 260 261
261 261 259 258 257 257 258 259 259 259 258 258 258 259 259 259 258 259 259 259 260 260 260 261 261 261 260 261 259 260 261 261 261 260 259 258 259 259 258 259 259 259 259
262 261 260 259 259 259 260 260 259 259 258 258 258 258 258 258 258 259 259 259 260 260 260 260 260 260 260 261 260 259 260 260 260 259 258 257 257 257 258 258 258 259 259
261 261 261 261 260 260 260 260 259 259 258 258 258 257 257 258 258 259 259 259 259 259 260 260 261 260 260 260 260 260 260 260 260 259 258 257 256 256 257 258 257 258 260
261 261 261 261 261 260 259 259 260 259 258 258 257 257 258 258 259 259 259 259 260 260 260 260 260 260 261 261 261 260 260 259 259 258 258 258 256 255 256 256 257 258 260
261 261 262 262 262 261 261 260 260 260 259 259 258 258 259 259 259 259 260 260 260 260 260 260 261 261 261 261 261 260 260 259 258 258 257 257 257 256 256 256 257 258 259
261 262 262 262 262 262 262 261 261 261 260 260 259 259 259 259 260 260 261 260 260 261 260 260 261 260 261 261 261 260 260 259 259 258 256 255 256 257 257 256 257 257 258
261 262 262 262 263 263 262 262 262 261 261 261 260 260 260 260 260 261 261 261 261 260 260 259 259 259 260 260 260 259 259 260 260 258 256 255 256 256 257 256 256 257 258
263 264 265 264 264 263 263 263 263 263 262 262 262 261 261 261 261 261 261 262 261 261 260 260 259 258 258 259 259 258 259 260 260 260 258 256 255 255 256 256 256 256 257
263 264 265 265 264 263 263 263 263 263 263 263 263 263 263 262 262 261 261 261 261 261 261 260 259 258 257 258 258 258 258 259 259 259 258 256 255 255 254 254 255 256 256
263 264 266 265 264 264 264 265 265 264 264 264 264 263 263 262 262 261 260 260 260 260 260 259 259 258 257 257 258 258 258 258 258 258 258 257 255 254 253 253 254 254 254
265 266 266 266 266 266 265 266 266 265 265 265 264 263 262 262 262 262 260 260 259 259 259 259 259 258 257 257 257 257 258 258 257 257 257 256 255 254 253 253 253 253 254
265 266 266 267 267 267 266 266 266 266 266 265 264 263 263 263 263 262 261 260 259 259 259 258 258 258 257 257 256 256 257 258 257 257 256 256 255 254 253 252 252 252 253
265 266 266 267 268 268 267 267 268 267 266 266 264 264 264 263 262 262 262 261 259 259 258 258 257 257 257 257 256 256 256 256 256 256 255 255 255 254 253 252 251 251 252
266 266 267 268 268 268 268 268 268 268 267 266 265 265 264 263 262 262 261 261 260 259 258 258 258 258 258 257 257 256 256 255 255 255 255 255 255 254 254 252 252 251 251
266 266 267 268 268 268 268 268 267 267 266 265 265 264 263 262 262 261 261 260 260 259 258 258 258 258 258 258 257 256 256 255 254 254 254 254 254 254 254 253 252 252 251
266 266 267 267 267 267 268 268 267 266 265 265 264 263 263 262 261 261 261 261 260 260 259 258 258 257 258 258 257 257 256 255 255 254 254 254 254 254 254 253 253 252 252
267 267 266 266 266 267 267 267 266 265 265 265 264 263 262 262 261 261 261 261 261 261 260 259 258 258 257 258 257 256 256 255 255 254 254 254 254 254 253 253 253 252 252
267 266 266 266 267 267 266 266 266 266 265 264 264 263 262 262 261 261 261 261 261 261 260 259 258 257 256 256 256 256 256 255 255 255 255 255 254 254 253 253 253 253 253
267 266 266 267 267 266 266 265 266 266 265 264 264 264 263 263 262 262 261 261 261 261 261 260 259 258 257 256 256 256 255 255 255 255 255 255 255 254 254 253 253 253 253
268 268 267 267 267 266 265 265 265 265 265 264 263 263 263 263 262 262 261 261 261 261 261 261 260 259 258 257 256 256 255 255 255 255 255 255 255 255 254 254 254 253 253
269 269 268 268 267 266 265 264 264 265 265 264 264 263 263 262 262 261 261 261 261 261 261 261 260 260 259 258 257 257 256 256 255 255 256 256 256 255 254 254 253 253 253
269 269 269 269 268 266 265 264 264 264 264 264 263 263 263 262 262 262 262 261 261 262 262 262 262 261 260 259 259 258 258 257 257 256 255 255 255 254 254 254 254 254 253
270 270 270 270 268 266 265 265 264 264 265 264 264 263 263 262 262 262 262 262 262 262 262 263 263 262 261 261 260 260 259 258 257 257 256 255 254 254 253 254 254 254 253
271 271 270 270 269 268 267 267 266 265 264 264 264 264 264 263 263 263 263 263 263 263 263 263 264 263 263 262 262 261 260 258 258 257 256 255 254 254 253 253 254 254 253
273 273 272 271 270 269 268 267 266 265 265 264 264 264 264 264 264 264 264 264 264 263 263 263 264 264 264 264 264 263 261 259 258 257 256 255 254 254 253 253 254 254 253